Voltar ao catálogo

COSMOS 397 DEB

AtivoLEO
NORAD 5013·DEBRIS·🇷🇺 Russia

Lançado Feb 25, 1971 de Baikonur Cosmodrome

Loading…

Próximas Passagens (próximas 24 horas)

TLE

AtualizadoSource: Space-Track

Época: Sep 14, 2026, 06:58 UTC

1 05013U 71015G   26257.29055620  .00001516  00000-0  61819-3 0  9995
2 05013  65.8103 219.9040 0834974  57.5889 310.3152 13.18464395616288

Acompanhe COSMOS 397 DEB em tempo real com AllMySat

Download on the App Store